| time (UTC) | temp F | wind direction | speed MPH | gust MPH | rain 1hr in | rain 24hr in | rain mn in | humidity % | barometer mb |
| 20260505001758 | 51 | 255 | 1.0 | 6.0 | 0.00 | 0.00 | 0.00 | 1 | 1013.6 |
| 20260505001513 | 51 | 134 | 1.0 | 6.0 | 0.00 | 0.00 | 0.00 | 1 | 1013.7 |
| 20260505000804 | 52 | 27 | 1.0 | 4.0 | 0.00 | 0.00 | 0.00 | 1 | 1013.8 |
| 20260505000754 | 52 | 69 | 1.0 | 4.0 | 0.00 | 0.00 | 0.00 | 1 | 1013.8 |
| 20260504235755 | 52 | 79 | 1.0 | 4.0 | 0.00 | 0.00 | 0.00 | 1 | 1013.9 |
| 20260504235247 | 51 | 42 | 2.0 | 7.0 | 0.00 | 0.00 | 0.00 | 1 | 1013.9 |
| 20260504234744 | 51 | 91 | 2.0 | 8.0 | 0.00 | 0.00 | 0.00 | 1 | 1013.9 |
| 20260504234238 | 52 | 67 | 2.0 | 7.0 | 0.00 | 0.00 | 0.00 | 1 | 1014.0 |
| 20260504233731 | 52 | 103 | 1.0 | 6.0 | 0.00 | 0.00 | 0.00 | 1 | 1014.0 |
| 20260504233225 | 52 | 115 | 0.0 | 2.0 | 0.00 | 0.00 | 0.00 | 1 | 1014.0 |
| 20260504232945 | 52 | 321 | 0.0 | 3.0 | 0.00 | 0.00 | 0.00 | 1 | 1014.1 |
| 20260504232212 | 52 | 30 | 1.0 | 3.0 | 0.00 | 0.00 | 0.00 | 1 | 1014.1 |
| 20260504231933 | 52 | 103 | 1.0 | 5.0 | 0.00 | 0.00 | 0.00 | 1 | 1014.1 |
| 20260504231201 | 52 | 110 | 1.0 | 5.0 | 0.00 | 0.00 | 0.00 | 1 | 1014.2 |
| 20260504230709 | 52 | 261 | 1.0 | 5.0 | 0.00 | 0.00 | 0.00 | 1 | 1014.1 |
| 20260504230147 | 52 | 60 | 1.0 | 5.0 | 0.00 | 0.00 | 0.00 | 1 | 1014.2 |
| 20260504225646 | 52 | 37 | 1.0 | 5.0 | 0.00 | 0.00 | 0.00 | 1 | 1014.1 |
| 20260504225136 | 52 | 56 | 1.0 | 5.0 | 0.00 | 0.00 | 0.00 | 1 | 1014.2 |
| 20260504224630 | 52 | 88 | 1.0 | 5.0 | 0.00 | 0.00 | 0.00 | 1 | 1014.3 |
| 20260504224124 | 53 | 70 | 1.0 | 4.0 | 0.00 | 0.00 | 0.00 | 1 | 1014.2 |
| 20260504223617 | 53 | 192 | 1.0 | 5.0 | 0.00 | 0.00 | 0.00 | 1 | 1014.2 |
| 20260504223112 | 53 | 80 | 1.0 | 10.0 | 0.00 | 0.00 | 0.00 | 1 | 1014.2 |
| 20260504222606 | 53 | 130 | 2.0 | 10.0 | 0.00 | 0.00 | 0.00 | 1 | 1014.3 |
| 20260504222320 | 53 | 220 | 2.0 | 8.0 | 0.00 | 0.00 | 0.00 | 1 | 1014.3 |
| 20260504222040 | 53 | 116 | 3.0 | 8.0 | 0.00 | 0.00 | 0.00 | 1 | 1014.4 |
| 20260504221049 | 53 | 73 | 2.0 | 8.0 | 0.00 | 0.00 | 0.00 | 1 | 1014.4 |
| 20260504220806 | 53 | 139 | 1.0 | 5.0 | 0.00 | 0.00 | 0.00 | 1 | 1014.4 |
| 20260504220052 | 53 | 345 | 1.0 | 8.0 | 0.00 | 0.00 | 0.00 | 1 | 1014.5 |
| 20260504215531 | 53 | 181 | 2.0 | 8.0 | 0.00 | 0.00 | 0.00 | 1 | 1014.6 |
| 20260504215025 | 53 | 89 | 2.0 | 6.0 | 0.00 | 0.00 | 0.00 | 1 | 1014.6 |
| 20260504214521 | 53 | 15 | 1.0 | 8.0 | 0.00 | 0.00 | 0.00 | 1 | 1014.5 |
| 20260504214015 | 54 | 58 | 2.0 | 10.0 | 0.00 | 0.00 | 0.00 | 1 | 1014.5 |
| 20260504213503 | 54 | 108 | 2.0 | 10.0 | 0.00 | 0.00 | 0.00 | 1 | 1014.5 |
| 20260504213224 | 54 | 86 | 1.0 | 7.0 | 0.00 | 0.00 | 0.00 | 1 | 1014.6 |
| 20260504213206 | 54 | 44 | 0.0 | 3.0 | 0.00 | 0.00 | 0.00 | 1 | 1014.5 |
| 20260504211944 | 54 | 22 | 0.0 | 2.0 | 0.00 | 0.00 | 0.00 | 1 | 1014.5 |
| 20260504211934 | 54 | 14 | 0.0 | 2.0 | 0.00 | 0.00 | 0.00 | 1 | 1014.6 |
| 20260504210933 | 54 | 217 | 0.0 | 2.0 | 0.00 | 0.00 | 0.00 | 1 | 1014.5 |
| 20260504210650 | 54 | 77 | 0.0 | 2.0 | 0.00 | 0.00 | 0.00 | 1 | 1014.5 |
| 20260504210145 | 54 | 101 | 0.0 | 2.0 | 0.00 | 0.00 | 0.00 | 1 | 1014.4 |
| 20260504205636 | 54 | 13 | 1.0 | 3.0 | 0.00 | 0.00 | 0.00 | 1 | 1014.4 |
| 20260504205141 | 54 | 107 | 0.0 | 3.0 | 0.00 | 0.00 | 0.00 | 1 | 1014.4 |
| 20260504204402 | 55 | 213 | 0.0 | 2.0 | 0.00 | 0.00 | 0.00 | 1 | 1014.5 |
| 20260504203856 | 55 | 125 | 1.0 | 3.0 | 0.00 | 0.00 | 0.00 | 1 | 1014.5 |
| 20260504203350 | 55 | 22 | 0.0 | 4.0 | 0.00 | 0.00 | 0.00 | 1 | 1014.5 |
| 20260504203114 | 55 | 48 | 0.0 | 4.0 | 0.00 | 0.00 | 0.00 | 1 | 1014.5 |
| 20260504202337 | 55 | 50 | 1.0 | 3.0 | 0.00 | 0.00 | 0.00 | 1 | 1014.4 |
| 20260504202058 | 55 | 56 | 0.0 | 2.0 | 0.00 | 0.00 | 0.00 | 1 | 1014.4 |
| 20260504201328 | 55 | 316 | 0.0 | 4.0 | 0.00 | 0.00 | 0.00 | 1 | 1014.3 |
| 20260504200821 | 55 | 150 | 0.0 | 4.0 | 0.00 | 0.00 | 0.00 | 1 | 1014.3 |
| 20260504200316 | 55 | 281 | 0.0 | 4.0 | 0.00 | 0.00 | 0.00 | 1 | 1014.3 |
| 20260504195809 | 55 | 71 | 0.0 | 3.0 | 0.00 | 0.00 | 0.00 | 1 | 1014.2 |
| 20260504195304 | 55 | 68 | 0.0 | 5.0 | 0.00 | 0.00 | 0.00 | 1 | 1014.2 |
| 20260504195022 | 56 | 154 | 0.0 | 5.0 | 0.00 | 0.00 | 0.00 | 1 | 1014.1 |
| 20260504194250 | 56 | 67 | 0.0 | 4.0 | 0.00 | 0.00 | 0.00 | 1 | 1014.1 |
| 20260504194014 | 56 | 54 | 1.0 | 3.0 | 0.00 | 0.00 | 0.00 | 1 | 1014.0 |
| 20260504193240 | 56 | 359 | 1.0 | 4.0 | 0.00 | 0.00 | 0.00 | 1 | 1014.0 |
| 20260504193001 | 56 | 308 | 1.0 | 4.0 | 0.00 | 0.00 | 0.00 | 1 | 1014.0 |
| 20260504192227 | 56 | 203 | 1.0 | 4.0 | 0.00 | 0.00 | 0.00 | 1 | 1014.0 |
| 20260504191720 | 56 | 68 | 1.0 | 4.0 | 0.00 | 0.00 | 0.00 | 1 | 1014.0 |
| 20260504191214 | 56 | 117 | 0.0 | 4.0 | 0.00 | 0.00 | 0.00 | 1 | 1014.0 |
| 20260504190708 | 56 | 249 | 1.0 | 6.0 | 0.00 | 0.00 | 0.00 | 1 | 1014.0 |
| 20260504190428 | 56 | 267 | 1.0 | 6.0 | 0.00 | 0.00 | 0.00 | 1 | 1014.0 |
| 20260504185658 | 56 | 17 | 1.0 | 6.0 | 0.00 | 0.00 | 0.00 | 1 | 1014.0 |
| 20260504185416 | 56 | 78 | 0.0 | 6.0 | 0.00 | 0.00 | 0.00 | 1 | 1013.9 |
| 20260504184646 | 56 | 329 | 0.0 | 3.0 | 0.00 | 0.00 | 0.00 | 1 | 1013.9 |
| 20260504184139 | 56 | 39 | 1.0 | 5.0 | 0.00 | 0.00 | 0.00 | 1 | 1013.9 |
| 20260504183903 | 56 | 314 | 1.0 | 5.0 | 0.00 | 0.00 | 0.00 | 1 | 1013.9 |
| 20260504183218 | 57 | 270 | 1.0 | 5.0 | 0.00 | 0.00 | 0.00 | 1 | 1013.9 |
| 20260504182113 | 57 | 107 | 0.0 | 3.0 | 0.00 | 0.00 | 0.00 | 1 | 1013.8 |
| 20260504181610 | 57 | 233 | 0.0 | 2.0 | 0.00 | 0.00 | 0.00 | 1 | 1013.8 |
| 20260504181103 | 57 | 11 | 1.0 | 6.0 | 0.00 | 0.00 | 0.00 | 1 | 1013.7 |
| 20260504180605 | 57 | 328 | 1.0 | 6.0 | 0.00 | 0.00 | 0.00 | 1 | 1013.7 |
| 20260504180100 | 57 | 17 | 1.0 | 8.0 | 0.00 | 0.00 | 0.00 | 1 | 1013.7 |
| 20260504175544 | 57 | 17 | 2.0 | 8.0 | 0.00 | 0.00 | 0.00 | 1 | 1013.8 |
| 20260504175038 | 58 | 115 | 1.0 | 6.0 | 0.00 | 0.00 | 0.00 | 1 | 1013.8 |
| 20260504174801 | 58 | 359 | 1.0 | 5.0 | 0.00 | 0.00 | 0.00 | 1 | 1013.8 |
| 20260504174033 | 58 | 236 | 1.0 | 5.0 | 0.00 | 0.00 | 0.00 | 1 | 1013.8 |
| 20260504173534 | 58 | 241 | 1.0 | 4.0 | 0.00 | 0.00 | 0.00 | 1 | 1013.8 |
| 20260504173033 | 59 | 55 | 1.0 | 4.0 | 0.00 | 0.00 | 0.00 | 1 | 1013.7 |
| 20260504172533 | 59 | 69 | 1.0 | 8.0 | 0.00 | 0.00 | 0.00 | 1 | 1013.7 |
| 20260504172033 | 59 | 158 | 1.0 | 8.0 | 0.00 | 0.00 | 0.00 | 1 | 1013.7 |
| 20260504172024 | 59 | 102 | 1.0 | 7.0 | 0.00 | 0.00 | 0.00 | 1 | 1013.7 |
| 20260504171035 | 59 | 134 | 1.0 | 7.0 | 0.00 | 0.00 | 0.00 | 1 | 1013.8 |
| 20260504170533 | 60 | 264 | 1.0 | 5.0 | 0.00 | 0.00 | 0.00 | 1 | 1013.7 |
| 20260504151007 | 62 | 59 | 1.0 | 4.0 | 0.00 | 0.00 | 0.00 | 1 | 1013.3 |
| 20260504150502 | 63 | 72 | 1.0 | 5.0 | 0.00 | 0.00 | 0.00 | 1 | 1013.3 |
| 20260504141006 | 64 | 52 | 1.0 | 7.0 | 0.00 | 0.00 | 0.00 | 1 | 1013.6 |
| 20260504140504 | 64 | 13 | 2.0 | 7.0 | 0.00 | 0.00 | 0.00 | 1 | 1013.6 |
| 20260504130628 | 64 | 113 | 1.0 | 6.0 | 0.00 | 0.00 | 0.00 | 1 | 1013.6 |
| 20260504110321 | 63 | 265 | 0.0 | 3.0 | 0.00 | 0.04 | 0.00 | 1 | 1013.9 |
| 20260504100207 | 62 | 288 | 0.0 | 2.0 | 0.00 | 0.11 | 0.00 | 1 | 1013.9 |
| 20260504090109 | 60 | 243 | 0.0 | 0.0 | 0.00 | 0.11 | 0.00 | 1 | 1013.7 |
| 20260504081500 | 58 | 120 | 0.0 | 0.0 | 0.00 | 0.11 | 0.00 | 1 | 1013.4 |
| 20260504080956 | 58 | 120 | 0.0 | 0.0 | 0.00 | 0.11 | 0.00 | 1 | 1013.3 |
| 20260504080720 | 58 | 120 | 0.0 | 0.0 | 0.00 | 0.11 | 0.00 | 1 | 1013.3 |
| 20260504070348 | 58 | 119 | 0.0 | 1.0 | 0.00 | 0.12 | 0.00 | 1 | 1012.8 |
| 20260504050332 | 56 | 127 | 0.0 | 0.0 | 0.00 | 0.13 | 0.00 | 1 | 1011.9 |
| 20260504045817 | 56 | 111 | 0.0 | 0.0 | 0.00 | 0.13 | 0.00 | 1 | 1011.8 |
| 20260504045319 | 56 | 111 | 0.0 | 0.0 | 0.00 | 0.13 | 0.00 | 1 | 1011.9 |
| 20260504044814 | 56 | 110 | 0.0 | 0.0 | 0.00 | 0.13 | 0.00 | 1 | 1011.8 |
| 20260504044546 | 56 | 116 | 0.0 | 0.0 | 0.00 | 0.13 | 0.00 | 1 | 1011.7 |
| 20260504044036 | 56 | 118 | 0.0 | 0.0 | 0.00 | 0.13 | 0.00 | 1 | 1011.8 |
| 20260504043318 | 56 | 127 | 0.0 | 0.0 | 0.00 | 0.13 | 0.00 | 1 | 1011.7 |
| 20260504043030 | 56 | 139 | 0.0 | 0.0 | 0.00 | 0.13 | 0.00 | 1 | 1011.9 |
| 20260504042308 | 56 | 131 | 0.0 | 0.0 | 0.00 | 0.13 | 0.00 | 1 | 1011.9 |
| 20260504041808 | 56 | 131 | 0.0 | 0.0 | 0.00 | 0.13 | 0.00 | 1 | 1011.8 |
| 20260504041307 | 56 | 131 | 0.0 | 1.0 | 0.00 | 0.13 | 0.00 | 1 | 1011.7 |
| 20260504040807 | 56 | 131 | 0.0 | 1.0 | 0.00 | 0.13 | 0.00 | 1 | 1011.8 |
| 20260504040308 | 56 | 294 | 0.0 | 0.0 | 0.00 | 0.13 | 0.00 | 1 | 1011.7 |
| 20260504035812 | 57 | 294 | 0.0 | 0.0 | 0.00 | 0.13 | 0.00 | 1 | 1011.7 |
| 20260504035309 | 57 | 294 | 0.0 | 0.0 | 0.00 | 0.13 | 0.00 | 1 | 1011.7 |
| 20260504034812 | 57 | 294 | 0.0 | 0.0 | 0.00 | 0.13 | 0.00 | 1 | 1011.7 |
| 20260504034310 | 57 | 294 | 0.0 | 0.0 | 0.00 | 0.14 | 0.00 | 1 | 1011.7 |
| 20260504034036 | 57 | 294 | 0.0 | 0.0 | 0.00 | 0.15 | 0.00 | 1 | 1011.7 |
| 20260504033308 | 57 | 294 | 0.0 | 0.0 | 0.00 | 0.15 | 0.00 | 1 | 1011.7 |
| 20260504032809 | 57 | 294 | 0.0 | 0.0 | 0.00 | 0.15 | 0.00 | 1 | 1011.7 |
| 20260504032311 | 57 | 294 | 0.0 | 0.0 | 0.00 | 0.15 | 0.00 | 1 | 1011.8 |
| 20260504031809 | 57 | 294 | 0.0 | 0.0 | 0.00 | 0.15 | 0.00 | 1 | 1011.8 |
| 20260504031308 | 57 | 294 | 0.0 | 0.0 | 0.00 | 0.15 | 0.00 | 1 | 1011.9 |
| 20260504030809 | 57 | 294 | 0.0 | 0.0 | 0.00 | 0.15 | 0.00 | 1 | 1011.9 |
| 20260504030531 | 57 | 294 | 0.0 | 0.0 | 0.00 | 0.15 | 0.00 | 1 | 1011.9 |
| 20260504030027 | 57 | 294 | 0.0 | 0.0 | 0.00 | 0.15 | 0.00 | 1 | 1011.9 |
| 20260504025258 | 57 | 294 | 0.0 | 0.0 | 0.00 | 0.15 | 0.00 | 1 | 1011.8 |
| 20260504024752 | 56 | 294 | 0.0 | 0.0 | 0.00 | 0.16 | 0.00 | 1 | 1011.7 |
| 20260504024245 | 56 | 294 | 0.0 | 0.0 | 0.00 | 0.17 | 0.00 | 1 | 1011.8 |
| 20260504023741 | 56 | 294 | 0.0 | 0.0 | 0.00 | 0.17 | 0.00 | 1 | 1011.8 |
| 20260504023236 | 56 | 294 | 0.0 | 0.0 | 0.00 | 0.17 | 0.00 | 1 | 1011.9 |
| 20260504022727 | 56 | 294 | 0.0 | 0.0 | 0.00 | 0.17 | 0.00 | 1 | 1011.7 |
| 20260504022221 | 56 | 294 | 0.0 | 0.0 | 0.00 | 0.17 | 0.00 | 1 | 1011.7 |
| 20260504021939 | 56 | 294 | 0.0 | 0.0 | 0.00 | 0.17 | 0.00 | 1 | 1011.7 |
| 20260504021208 | 56 | 294 | 0.0 | 0.0 | 0.00 | 0.17 | 0.00 | 1 | 1011.7 |
| 20260504020703 | 56 | 294 | 0.0 | 0.0 | 0.00 | 0.17 | 0.00 | 1 | 1011.7 |
| 20260504020155 | 56 | 294 | 0.0 | 0.0 | 0.00 | 0.17 | 0.00 | 1 | 1011.8 |
| 20260504015648 | 56 | 294 | 0.0 | 0.0 | 0.00 | 0.17 | 0.00 | 1 | 1011.8 |
| 20260504015142 | 56 | 294 | 0.0 | 0.0 | 0.00 | 0.17 | 0.00 | 1 | 1011.7 |
| 20260504014637 | 56 | 294 | 0.0 | 0.0 | 0.00 | 0.17 | 0.00 | 1 | 1011.8 |
| 20260504014129 | 56 | 294 | 0.0 | 1.0 | 0.00 | 0.17 | 0.00 | 1 | 1011.8 |
| 20260504013847 | 56 | 294 | 0.0 | 2.0 | 0.00 | 0.17 | 0.00 | 1 | 1011.8 |
| 20260504013118 | 55 | 299 | 0.0 | 2.0 | 0.00 | 0.17 | 0.00 | 1 | 1011.8 |
| 20260504012612 | 55 | 299 | 0.0 | 1.0 | 0.00 | 0.17 | 0.00 | 1 | 1011.8 |
| 20260504012105 | 55 | 300 | 0.0 | 0.0 | 0.00 | 0.17 | 0.00 | 1 | 1011.8 |
| 20260504011617 | 55 | 300 | 0.0 | 0.0 | 0.00 | 0.17 | 0.00 | 1 | 1011.7 |
| 20260504011600 | 55 | 300 | 0.0 | 0.0 | 0.00 | 0.17 | 0.00 | 1 | 1011.8 |
| 20260504010559 | 55 | 300 | 0.0 | 0.0 | 0.00 | 0.17 | 0.00 | 1 | 1011.7 |
| 20260504010317 | 55 | 300 | 0.0 | 0.0 | 0.00 | 0.17 | 0.00 | 1 | 1011.7 |
| 20260504005759 | 55 | 300 | 0.0 | 0.0 | 0.00 | 0.17 | 0.00 | 1 | 1011.7 |
| 20260504005030 | 55 | 300 | 0.0 | 0.0 | 0.00 | 0.17 | 0.00 | 1 | 1011.7 |
| 20260504004750 | 55 | 300 | 0.0 | 0.0 | 0.00 | 0.17 | 0.00 | 1 | 1011.7 |
| 20260504004020 | 56 | 300 | 0.0 | 0.0 | 0.00 | 0.17 | 0.00 | 1 | 1011.7 |
| 20260504003514 | 56 | 300 | 0.0 | 0.0 | 0.00 | 0.17 | 0.00 | 1 | 1011.7 |
| 20260504003229 | 56 | 300 | 0.0 | 0.0 | 0.00 | 0.17 | 0.00 | 1 | 1011.7 |
| 20260504002500 | 56 | 300 | 0.0 | 0.0 | 0.00 | 0.17 | 0.00 | 1 | 1011.7 |
| 20260504002216 | 56 | 300 | 0.0 | 0.0 | 0.00 | 0.17 | 0.00 | 1 | 1011.7 |